Regional Weather Roundup
Issued by NWS

Home | Current Version | Previous Version | Graphics & Text | Print | Product List | Glossary On
Versions: 1 2 3 4 5 6 7 8 9 10 11 12 13 14 15 16 17 18 19 20 21 22 23 24 25 26 27
000
ASUS45 KBOU 241407
RWRCO

WEATHER ROUNDUP FOR COLORADO
NATIONAL WEATHER SERVICE DENVER/BOULDER CO
700 AM MST FRI FEB 24 2017

NOTE: "FAIR" INDICATES FEW OR NO CLOUDS BELOW 12000 FEET WITH NO
SIGNIFICANT WEATHER AND/OR OBSTRUCTIONS TO VISIBILITY.

COZ001>005-013-030-031-241500-
...NORTHWEST COLORADO...

CITY           SKY/WX    TMP DP  RH WIND       PRES   REMARKS
CRAIG          LGT SNOW  16  10  77 SW6       29.85R WCI   7
HAYDEN         FAIR      12   9  85 SW5       29.81R WCI   4
MEEKER         CLOUDY    18  15  88 SW6       29.83R WCI  10
MOUNT WERNER   NOT AVBL
STEAMBOAT SPGS CLOUDY    13  10  85 CALM      29.80R
WALDEN         NOT AVBL
$$

COZ006>008-011-241500-
...WEST CENTRAL VALLEYS...

CITY           SKY/WX    TMP DP  RH WIND       PRES   REMARKS
GRAND JUNCTION CLOUDY    25  23  92 W3        29.88R
MONTROSE       CLOUDY    21  16  81 SE3       29.88R
EAGLE          MOCLDY    18  16  93 SW5       29.82R WCI  11
RIFLE          CLOUDY    24  20  84 SW6       29.86R WCI  17
DELTA          FAIR      22  15  75 CALM      29.89R
NUCLA          CLOUDY    28  14  54 CALM      29.89R
$$

COZ017>023-064>068-241500-
...SOUTHWEST COLORADO...

CITY           SKY/WX    TMP DP  RH WIND       PRES   REMARKS
DURANGO        MOCLDY    19  11  70 W3        29.86R
CORTEZ         FAIR      19  16  88 E5        29.88R WCI  12
PAGOSA SPRINGS CLOUDY    13   5  69 CALM      29.83R
TELLURIDE      LGT SNOW  12  10  92 CALM      29.78R
WOLF CREEK PAS SNOW       0  -4  85 SW12G17   29.71R VSB 1/4 WCI -18
$$

COZ009-010-012-014-032>034-037-058>063-241500-
...CENTRAL COLORADO...

CITY           SKY/WX    TMP DP  RH WIND       PRES   REMARKS
ASPEN          MOCLDY    12   7  80 S6        29.76R WCI   3
BUENA VISTA    FAIR      11   1  63 NW3       29.75R
COPPER MTN     LGT SNOW   5  -4  66 MISG      29.59R
BERTHOUD PASS  SNOW      -6 -15  65 NW17G24   29.54R VSB 1/2 WCI -28
COTTONWOOD PAS FAIR      12   0  57 W7G20     29.67S WCI   2
GUNNISON       FLURRIES   2  -2  83 SE5       29.81R WCI  -8
KREMMLING      CLOUDY    19  14  79 N3        29.77R
LEADVILLE      CLOUDY     4  -1  80 CALM      29.66R
MONARCH PASS   CLOUDY     1  -4  78 W17G26    29.72R WCI -19
SALIDA         FAIR      16   4  61 NW5       29.83R WCI   8
SUNLIGHT       NOT AVBL
WILKERSON PASS FAIR       1  -6  71 SW8       29.64R WCI -12
$$

COZ069>075-241500-
...SAN LUIS VALLEY/SANGRE DE CRISTO MOUNTAINS...

CITY           SKY/WX    TMP DP  RH WIND       PRES   REMARKS
ALAMOSA        CLOUDY    12   7  80 CALM      29.78R
LA VETA PASS   CLOUDY     9   1  72 SW9G16    29.70R HAZE    WCI  -5
SAGUACHE       CLOUDY    12   3  67 CALM      29.78R
$$

COZ035-036-038>040-241500-
...NORTHERN COLORADO FRONT RANGE...

CITY           SKY/WX    TMP DP  RH WIND       PRES   REMARKS
DENVER INTL AP FLURRIES  17  13  84 NE9       29.88R WCI   6
DMNS CITY PARK   N/A     18  13  82 NE13      29.90R WCI   5
AURORA         FLURRIES  17  15  94 N10       29.88R WCI   4
FRONT RANGE AP FLURRIES  19  18  93 N7        29.88  WCI  10
ERIE MUNI ARPT FLURRIES  20  16  86 NE3       29.91R
BOULDER MUN AP LGT SNOW  19  18  93 CALM      29.90R
CENTENNIAL     LGT SNOW  17  13  84 N6        29.86R FOG     WCI   9
BROOMFIELD     LGT SNOW  18  16  93 N6        29.89R WCI   9
FORT COLLINS   FLURRIES  19  14  81 NE10      29.92R WCI   7
LONGMONT       CLOUDY    22  17  79 E3        29.93R
$$

COZ041-046-047-076>085-087-088-241500-
...PIKES PEAK/PALMER DIVIDE AND SOUTHERN FOOTHILLS...

CITY           SKY/WX    TMP DP  RH WIND       PRES   REMARKS
COLO. SPRINGS  FAIR      14   5  67 W5        29.85R WCI   6
A. F. ACADEMY  CLOUDY    11   6  77 NW5       29.82R WCI   3
SCHRIEVER AFB  FAIR      12   6  77 NW6       29.86R WCI   2
ELLICOTT       LGT RAIN N/A N/A N/A N3          N/A
FALCON         FAIR      12   6  76 N8        29.82R WCI   0
FORT CARSON    FLURRIES  17   7  64 NW6       29.86R WCI   9
LIMON          CLOUDY    17  14  88 N13       29.87R WCI   4
MONUMENT HILL  FLURRIES  10   9  92 NW7       29.81R WCI   0
TRINIDAD       CLOUDY    18  11  74 E8        29.86R WCI   8
$$

COZ042>045-048>051-090-091-241500-
...NORTHEAST COLORADO...

CITY           SKY/WX    TMP DP  RH WIND       PRES   REMARKS
GREELEY ARPT   LGT SNOW  20  16  84 N7        29.94R FOG     WCI  11
AKRON          LGT SNOW  17  14  88 N14       29.89R FOG     WCI   3
BURLINGTON     CLOUDY    21  17  84 N15       29.89R WCI   8
WRAY           NOT AVBL
STERLING       LGT SNOW  21  19  93 N5        29.93R VSB 1   WCI  15
HOLYOKE        LGT SNOW  25  21  86 N9        29.92R WCI  15
FORT MORGAN    LGT SNOW  19  17  90 N3        29.93R
$$

COZ086-089-092>099-241500-
...SOUTHEAST COLORADO...

CITY           SKY/WX    TMP DP  RH WIND       PRES   REMARKS
PUEBLO         CLOUDY    15   8  73 N3        29.92R
LA JUNTA       CLOUDY    24  14  65 N5        29.94R WCI  18
LAMAR          CLOUDY    25  14  63 N14       29.92R WCI  13
SPRINGFIELD      N/A     19  12  74 NW14      29.88R WCI   6
$$




USA.gov is the U.S. government's official web portal to all federal, state and local government web resources and services.